Location: Chmeln�
(49.6483°N, 14.9871°E)
Time: 05:52:41
(UTC+00:00)

Lacrosse 5 rocket - Pass Details

Date: 23 January 2021
Orbit: 465 x 630 km, 57.0° (Epoch: 06 March)

Event Time Altitude Azimuth Distance (km) Brightness Sun altitude
Exits shadow 05:00:41 29° 246° (WSW) 943 2.1 -16.4°
Maximum altitude 05:01:16 31° 227° (SW) 905 2.1 -16.3°
Drops below altitude 10° 05:04:36 10° 164° (SSE) 1,670 4.1 -15.8°
Sets 05:06:52 0° 154° (SSE) 2,525 5.3 -15.5°
